ARG1598 SBFL-SACO

Flight info

Callsign ARG1598
Flight time 2h 25m
Altitude 32000
Route NESMI UZ75 IMBIM UM400 GEMOP GEMOP1Q
Aircraft B38M/M-SDE1FGHILORVWXY/HB1

Departure

Time 2026-04-28 20:32
Airport Hercílio Luz International Airport (SBFL)

Arrival

Time 2026-04-28 22:57
Airport Ingeniero Aeronáutico Ambrosio L.V. Taravella International Airport (SACO)
Time Latitude Longitude Altitude Speed Heading
2026-04-28 19:58 -27.67344 -48.54433 29 ft 0 kts 212°
2026-04-28 20:22 -27.67339 -48.54429 29 ft 4 kts 215°
2026-04-28 20:22 -27.67322 -48.54408 29 ft 4 kts 252°
2026-04-28 20:23 -27.67322 -48.54381 29 ft 4 kts 290°
2026-04-28 20:23 -27.67335 -48.54354 29 ft 4 kts 303°
2026-04-28 20:23 -27.67342 -48.54343 29 ft 1 kts 302°
2026-04-28 20:27 -27.67340 -48.54346 29 ft 2 kts 302°
2026-04-28 20:27 -27.67324 -48.54375 29 ft 8 kts 302°
2026-04-28 20:27 -27.67281 -48.54449 29 ft 15 kts 302°
2026-04-28 20:27 -27.67215 -48.54569 29 ft 19 kts 302°
2026-04-28 20:28 -27.67129 -48.54623 29 ft 12 kts 13°
2026-04-28 20:28 -27.67055 -48.54589 29 ft 11 kts 342°
2026-04-28 20:28 -27.67014 -48.54655 29 ft 12 kts 300°
2026-04-28 20:28 -27.66952 -48.54770 29 ft 23 kts 301°
2026-04-28 20:29 -27.66863 -48.54937 29 ft 26 kts 301°
2026-04-28 20:29 -27.66787 -48.55076 29 ft 18 kts 307°
2026-04-28 20:29 -27.66697 -48.55125 29 ft 11 kts 346°
2026-04-28 20:29 -27.66614 -48.55132 29 ft 13 kts 25°
2026-04-28 20:30 -27.66590 -48.55103 28 ft 4 kts 90°
2026-04-28 20:30 -27.66601 -48.55067 28 ft 6 kts 120°
2026-04-28 20:30 -27.66607 -48.55054 28 ft 0 kts 120°
2026-04-28 20:31 -27.66752 -48.54784 28 ft 84 kts 121°
2026-04-28 20:31 -27.67195 -48.53962 28 ft 159 kts 121°
2026-04-28 20:32 -27.67860 -48.52734 358 ft 197 kts 121°
2026-04-28 20:32 -27.68606 -48.51384 1319 ft 207 kts 121°
2026-04-28 20:32 -27.69392 -48.49970 2221 ft 220 kts 122°
2026-04-28 20:32 -27.70221 -48.48469 2999 ft 231 kts 123°
2026-04-28 20:33 -27.71347 -48.47127 3691 ft 246 kts 149°
2026-04-28 20:33 -27.73017 -48.46590 4405 ft 256 kts 181°
2026-04-28 20:33 -27.74717 -48.47088 5440 ft 257 kts 205°
2026-04-28 20:33 -27.76284 -48.48103 6309 ft 259 kts 212°
2026-04-28 20:34 -27.77811 -48.49222 7173 ft 264 kts 214°
2026-04-28 20:34 -27.79419 -48.50311 7830 ft 278 kts 212°
2026-04-28 20:34 -27.81182 -48.51394 8380 ft 295 kts 211°
2026-04-28 20:34 -27.82980 -48.52431 9328 ft 293 kts 211°
2026-04-28 20:35 -27.84737 -48.53610 10103 ft 293 kts 227°
2026-04-28 20:35 -27.85960 -48.55438 10651 ft 297 kts 250°
2026-04-28 20:35 -27.86382 -48.57744 11082 ft 306 kts 274°
2026-04-28 20:35 -27.85945 -48.60121 11583 ft 315 kts 291°
2026-04-28 20:36 -27.85128 -48.62469 12167 ft 323 kts 291°
2026-04-28 20:36 -27.84312 -48.64829 13008 ft 323 kts 291°
2026-04-28 20:36 -27.83477 -48.67203 13709 ft 327 kts 291°
2026-04-28 20:36 -27.82627 -48.69586 14481 ft 327 kts 292°
2026-04-28 20:37 -27.81766 -48.71980 15226 ft 329 kts 291°
2026-04-28 20:37 -27.80915 -48.74341 15999 ft 330 kts 292°
2026-04-28 20:37 -27.80037 -48.76766 16630 ft 334 kts 292°
2026-04-28 20:37 -27.79158 -48.79192 17335 ft 335 kts 292°
2026-04-28 20:38 -27.78271 -48.81639 17953 ft 338 kts 291°
2026-04-28 20:38 -27.77377 -48.84105 18606 ft 340 kts 292°
2026-04-28 20:38 -27.76482 -48.86570 19261 ft 339 kts 291°
2026-04-28 20:38 -27.75580 -48.89052 19778 ft 343 kts 292°
2026-04-28 20:39 -27.74669 -48.91558 20337 ft 346 kts 292°
2026-04-28 20:39 -27.73753 -48.94076 20888 ft 348 kts 292°
2026-04-28 20:39 -27.72851 -48.96628 21373 ft 350 kts 288°
2026-04-28 20:39 -27.72423 -48.99338 21895 ft 352 kts 279°
2026-04-28 20:40 -27.72082 -49.02079 22285 ft 354 kts 280°
2026-04-28 20:40 -27.71733 -49.04808 22714 ft 356 kts 280°
2026-04-28 20:40 -27.71387 -49.07583 23191 ft 359 kts 280°
2026-04-28 20:40 -27.71041 -49.10373 23643 ft 360 kts 280°
2026-04-28 20:41 -27.70693 -49.13184 24092 ft 362 kts 280°
2026-04-28 20:41 -27.70342 -49.16014 24407 ft 364 kts 280°
2026-04-28 20:41 -27.69991 -49.18846 24873 ft 365 kts 280°
2026-04-28 20:41 -27.69637 -49.21694 25290 ft 368 kts 280°
2026-04-28 20:42 -27.69280 -49.24563 25741 ft 370 kts 280°
2026-04-28 20:42 -27.68920 -49.27449 26144 ft 372 kts 280°
2026-04-28 20:42 -27.68559 -49.30343 26550 ft 374 kts 280°
2026-04-28 20:42 -27.68195 -49.33255 26898 ft 376 kts 280°
2026-04-28 20:43 -27.67827 -49.36184 27260 ft 378 kts 280°
2026-04-28 20:43 -27.67459 -49.39120 27605 ft 379 kts 280°
2026-04-28 20:43 -27.67087 -49.42079 27926 ft 382 kts 281°
2026-04-28 20:43 -27.66713 -49.45047 28286 ft 383 kts 281°
2026-04-28 20:44 -27.66341 -49.47992 28577 ft 385 kts 281°
2026-04-28 20:44 -27.65963 -49.50987 28910 ft 387 kts 281°
2026-04-28 20:44 -27.65581 -49.54006 29194 ft 389 kts 281°
2026-04-28 20:44 -27.65197 -49.57027 29542 ft 390 kts 281°
2026-04-28 20:45 -27.64811 -49.60066 29833 ft 391 kts 281°
2026-04-28 20:45 -27.64424 -49.63106 30234 ft 390 kts 281°
2026-04-28 20:45 -27.64038 -49.66130 30607 ft 389 kts 281°
2026-04-28 20:45 -27.63653 -49.69145 31016 ft 388 kts 281°
2026-04-28 20:46 -27.63268 -49.72152 31417 ft 387 kts 281°
2026-04-28 20:46 -27.62884 -49.75150 31817 ft 385 kts 281°
2026-04-28 20:46 -27.62499 -49.78140 32067 ft 386 kts 281°
2026-04-28 20:47 -27.61736 -49.84073 32101 ft 382 kts 281°
2026-04-28 20:47 -27.60769 -49.89950 32097 ft 381 kts 288°
2026-04-28 20:48 -27.59266 -49.95680 32098 ft 381 kts 287°
2026-04-28 20:48 -27.57765 -50.01421 32099 ft 381 kts 287°
2026-04-28 20:49 -27.56259 -50.07150 32100 ft 380 kts 287°
2026-04-28 20:49 -27.54767 -50.12818 32100 ft 380 kts 287°
2026-04-28 20:50 -27.53261 -50.18524 32112 ft 380 kts 288°
2026-04-28 20:50 -27.51752 -50.24228 32118 ft 380 kts 288°
2026-04-28 20:51 -27.50241 -50.29934 32113 ft 380 kts 288°
2026-04-28 20:51 -27.48726 -50.35646 32114 ft 380 kts 288°
2026-04-28 20:52 -27.47219 -50.41316 32099 ft 380 kts 288°
2026-04-28 20:52 -27.45700 -50.47018 32104 ft 380 kts 288°
2026-04-28 20:53 -27.43419 -50.55565 32099 ft 380 kts 288°
2026-04-28 20:53 -27.41897 -50.61261 32105 ft 380 kts 288°
2026-04-28 20:54 -27.40987 -50.67125 32087 ft 382 kts 281°
2026-04-28 20:54 -27.40209 -50.73044 32104 ft 383 kts 281°
2026-04-28 20:55 -27.39440 -50.78968 32098 ft 381 kts 281°
2026-04-28 20:55 -27.38668 -50.84874 32093 ft 381 kts 281°
2026-04-28 20:56 -27.37891 -50.90745 32092 ft 382 kts 281°
2026-04-28 20:56 -27.37107 -50.96649 32094 ft 381 kts 281°
2026-04-28 20:57 -27.36320 -51.02555 32094 ft 381 kts 281°
2026-04-28 20:57 -27.35533 -51.08452 32087 ft 380 kts 281°
2026-04-28 20:58 -27.34745 -51.14330 32097 ft 380 kts 281°
2026-04-28 20:58 -27.33954 -51.20210 32093 ft 380 kts 281°
2026-04-28 20:59 -27.33165 -51.26082 32100 ft 380 kts 281°
2026-04-28 20:59 -27.32379 -51.31918 32097 ft 379 kts 281°
2026-04-28 21:00 -27.31587 -51.37772 32097 ft 379 kts 281°
2026-04-28 21:00 -27.30793 -51.43625 32087 ft 378 kts 281°
2026-04-28 21:01 -27.29999 -51.49462 32086 ft 378 kts 281°
2026-04-28 21:01 -27.29201 -51.55310 32090 ft 378 kts 281°
2026-04-28 21:02 -27.28403 -51.61140 32096 ft 377 kts 281°
2026-04-28 21:02 -27.27602 -51.66972 32093 ft 377 kts 281°
2026-04-28 21:03 -27.26804 -51.72755 32088 ft 377 kts 281°
2026-04-28 21:03 -27.25999 -51.78585 32091 ft 377 kts 281°
2026-04-28 21:04 -27.25191 -51.84409 32099 ft 377 kts 281°
2026-04-28 21:04 -27.24381 -51.90234 32095 ft 377 kts 281°
2026-04-28 21:05 -27.23570 -51.96052 32092 ft 376 kts 281°
2026-04-28 21:05 -27.22800 -52.01879 32081 ft 378 kts 276°
2026-04-28 21:06 -27.23066 -52.04824 32065 ft 386 kts 260°
2026-04-28 21:06 -27.24043 -52.07673 32091 ft 393 kts 255°
2026-04-28 21:06 -27.26152 -52.13361 32080 ft 393 kts 255°
2026-04-28 21:07 -27.28297 -52.18988 32087 ft 394 kts 254°
2026-04-28 21:07 -27.30469 -52.24640 32078 ft 394 kts 255°
2026-04-28 21:08 -27.32647 -52.30313 32082 ft 398 kts 255°
2026-04-28 21:08 -27.34843 -52.36037 32084 ft 397 kts 255°
2026-04-28 21:09 -27.37023 -52.41731 32083 ft 397 kts 255°
2026-04-28 21:09 -27.39197 -52.47415 32084 ft 396 kts 255°
2026-04-28 21:10 -27.41373 -52.53115 32107 ft 396 kts 255°
2026-04-28 21:10 -27.43548 -52.58816 32065 ft 396 kts 255°
2026-04-28 21:11 -27.45722 -52.64523 32082 ft 396 kts 255°
2026-04-28 21:11 -27.47879 -52.70190 32080 ft 396 kts 256°
2026-04-28 21:12 -27.50040 -52.75878 32083 ft 395 kts 255°
2026-04-28 21:12 -27.52204 -52.81581 32082 ft 396 kts 256°
2026-04-28 21:13 -27.54358 -52.87279 32081 ft 395 kts 256°
2026-04-28 21:13 -27.56509 -52.92973 32071 ft 394 kts 255°
2026-04-28 21:14 -27.58654 -52.98663 32081 ft 394 kts 256°
2026-04-28 21:14 -27.60801 -53.04361 32089 ft 395 kts 256°
2026-04-28 21:15 -27.62933 -53.10027 32079 ft 394 kts 256°
2026-04-28 21:15 -27.65070 -53.15716 32078 ft 394 kts 256°
2026-04-28 21:16 -27.67205 -53.21406 32096 ft 393 kts 256°
2026-04-28 21:16 -27.69334 -53.27088 32098 ft 393 kts 256°
2026-04-28 21:17 -27.71455 -53.32757 32098 ft 392 kts 256°
2026-04-28 21:17 -27.73578 -53.38440 32093 ft 392 kts 256°
2026-04-28 21:18 -27.75691 -53.44105 32091 ft 392 kts 256°
2026-04-28 21:18 -27.77801 -53.49770 32090 ft 390 kts 256°
2026-04-28 21:19 -27.79888 -53.55384 32093 ft 389 kts 256°
2026-04-28 21:19 -27.81983 -53.61026 32094 ft 389 kts 256°
2026-04-28 21:20 -27.84071 -53.66656 32093 ft 388 kts 256°
2026-04-28 21:20 -27.85804 -53.71334 32090 ft 388 kts 256°
2026-04-28 21:21 -27.87884 -53.76960 32091 ft 388 kts 256°
2026-04-28 21:21 -27.89960 -53.82584 32091 ft 387 kts 256°
2026-04-28 21:22 -27.92034 -53.88209 32106 ft 386 kts 257°
2026-04-28 21:22 -27.94097 -53.93828 32098 ft 386 kts 256°
2026-04-28 21:23 -27.96178 -53.99450 32169 ft 388 kts 256°
2026-04-28 21:23 -27.97223 -54.02284 32065 ft 388 kts 257°
2026-04-28 21:23 -27.98232 -54.05059 32071 ft 386 kts 257°
2026-04-28 21:24 -28.00286 -54.10669 32072 ft 386 kts 256°
2026-04-28 21:24 -28.02340 -54.16290 32080 ft 387 kts 256°
2026-04-28 21:25 -28.04398 -54.21920 32075 ft 387 kts 257°
2026-04-28 21:25 -28.06450 -54.27541 32075 ft 387 kts 257°
2026-04-28 21:26 -28.08502 -54.33175 32069 ft 386 kts 257°
2026-04-28 21:26 -28.10539 -54.38774 32076 ft 386 kts 257°
2026-04-28 21:27 -28.12586 -54.44409 32068 ft 386 kts 257°
2026-04-28 21:27 -28.14633 -54.50053 32075 ft 387 kts 257°
2026-04-28 21:28 -28.16677 -54.55698 32071 ft 387 kts 257°
2026-04-28 21:28 -28.18708 -54.61311 32074 ft 386 kts 257°
2026-04-28 21:29 -28.20748 -54.66959 32075 ft 388 kts 257°
2026-04-28 21:29 -28.22791 -54.72624 32071 ft 387 kts 257°
2026-04-28 21:30 -28.24824 -54.78280 32068 ft 388 kts 257°
2026-04-28 21:30 -28.26858 -54.83943 32073 ft 387 kts 257°
2026-04-28 21:31 -28.28888 -54.89600 32066 ft 388 kts 257°
2026-04-28 21:31 -28.30907 -54.95236 32064 ft 387 kts 257°
2026-04-28 21:32 -28.32943 -55.00928 32063 ft 387 kts 257°
2026-04-28 21:32 -28.34950 -55.06549 32063 ft 387 kts 257°
2026-04-28 21:33 -28.36969 -55.12211 32065 ft 387 kts 257°
2026-04-28 21:33 -28.38990 -55.17887 32060 ft 388 kts 257°
2026-04-28 21:34 -28.41010 -55.23571 32063 ft 388 kts 257°
2026-04-28 21:34 -28.43029 -55.29258 32053 ft 388 kts 257°
2026-04-28 21:35 -28.45042 -55.34939 32057 ft 388 kts 257°
2026-04-28 21:35 -28.47059 -55.40641 32055 ft 388 kts 257°
2026-04-28 21:36 -28.49072 -55.46337 32069 ft 388 kts 257°
2026-04-28 21:36 -28.51081 -55.52035 32071 ft 388 kts 257°
2026-04-28 21:37 -28.53078 -55.57702 32073 ft 388 kts 257°
2026-04-28 21:37 -28.55087 -55.63414 32074 ft 388 kts 257°
2026-04-28 21:38 -28.57085 -55.69107 32075 ft 388 kts 257°
2026-04-28 21:38 -28.59084 -55.74811 32075 ft 388 kts 257°
2026-04-28 21:39 -28.61083 -55.80523 32074 ft 388 kts 257°
2026-04-28 21:39 -28.63076 -55.86226 32065 ft 388 kts 257°
2026-04-28 21:40 -28.65066 -55.91930 32055 ft 388 kts 257°
2026-04-28 21:40 -28.67055 -55.97642 32056 ft 388 kts 257°
2026-04-28 21:41 -28.69027 -56.03311 32075 ft 388 kts 257°
2026-04-28 21:41 -28.71008 -56.09019 32080 ft 388 kts 257°
2026-04-28 21:42 -28.73007 -56.14735 32082 ft 389 kts 256°
2026-04-28 21:42 -28.75058 -56.20444 32082 ft 389 kts 256°
2026-04-28 21:43 -28.77101 -56.26151 32085 ft 390 kts 256°
2026-04-28 21:43 -28.79145 -56.31873 32081 ft 389 kts 256°
2026-04-28 21:44 -28.81186 -56.37597 32081 ft 389 kts 256°
2026-04-28 21:44 -28.83212 -56.43287 32075 ft 390 kts 256°
2026-04-28 21:45 -28.85253 -56.49026 32073 ft 390 kts 256°
2026-04-28 21:45 -28.87293 -56.54768 32073 ft 390 kts 256°
2026-04-28 21:46 -28.89334 -56.60518 32074 ft 390 kts 256°
2026-04-28 21:46 -28.91361 -56.66235 32074 ft 390 kts 256°
2026-04-28 21:47 -28.93395 -56.71980 32073 ft 390 kts 256°
2026-04-28 21:47 -28.95425 -56.77723 32072 ft 390 kts 256°
2026-04-28 21:48 -28.97457 -56.83483 32074 ft 391 kts 256°
2026-04-28 21:48 -28.99486 -56.89241 32073 ft 391 kts 256°
2026-04-28 21:49 -29.01498 -56.94963 32072 ft 391 kts 256°
2026-04-28 21:49 -29.03538 -57.00771 32073 ft 391 kts 256°
2026-04-28 21:50 -29.05549 -57.06507 32074 ft 391 kts 256°
2026-04-28 21:50 -29.07569 -57.12279 32075 ft 391 kts 256°
2026-04-28 21:51 -29.09588 -57.18055 32073 ft 391 kts 256°
2026-04-28 21:51 -29.11604 -57.23831 32073 ft 391 kts 256°
2026-04-28 21:52 -29.13618 -57.29614 32071 ft 391 kts 256°
2026-04-28 21:52 -29.15628 -57.35392 32073 ft 391 kts 256°
2026-04-28 21:53 -29.17625 -57.41143 32071 ft 391 kts 255°
2026-04-28 21:53 -29.19634 -57.46941 32073 ft 392 kts 256°
2026-04-28 21:54 -29.21639 -57.52732 32071 ft 392 kts 255°
2026-04-28 21:54 -29.23645 -57.58534 32074 ft 392 kts 255°
2026-04-28 21:55 -29.25753 -57.64318 32074 ft 394 kts 254°
2026-04-28 21:55 -29.27915 -57.70094 32072 ft 394 kts 254°
2026-04-28 21:56 -29.30065 -57.75866 32073 ft 394 kts 254°
2026-04-28 21:56 -29.32214 -57.81645 32073 ft 394 kts 254°
2026-04-28 21:57 -29.34363 -57.87435 32073 ft 394 kts 254°
2026-04-28 21:57 -29.36496 -57.93189 32071 ft 394 kts 253°
2026-04-28 21:58 -29.38637 -57.98976 32072 ft 394 kts 253°
2026-04-28 21:58 -29.40779 -58.04773 32075 ft 395 kts 253°
2026-04-28 21:59 -29.42770 -58.10632 32074 ft 393 kts 256°
2026-04-28 22:00 -29.45628 -58.19458 32065 ft 393 kts 255°
2026-04-28 22:00 -29.47527 -58.25310 32064 ft 394 kts 255°
2026-04-28 22:01 -29.49436 -58.31201 32064 ft 393 kts 255°
2026-04-28 22:01 -29.51346 -58.37102 32069 ft 393 kts 255°
2026-04-28 22:02 -29.53251 -58.43000 32071 ft 393 kts 255°
2026-04-28 22:02 -29.55142 -58.48866 32072 ft 393 kts 255°
2026-04-28 22:03 -29.57039 -58.54761 32074 ft 393 kts 255°
2026-04-28 22:03 -29.58936 -58.60665 32074 ft 393 kts 255°
2026-04-28 22:04 -29.60832 -58.66575 32073 ft 394 kts 255°
2026-04-28 22:04 -29.62724 -58.72484 32074 ft 394 kts 255°
2026-04-28 22:05 -29.64600 -58.78354 32073 ft 394 kts 255°
2026-04-28 22:05 -29.66493 -58.84286 32058 ft 394 kts 255°
2026-04-28 22:06 -29.68414 -58.90193 32056 ft 395 kts 254°
2026-04-28 22:06 -29.70382 -58.96107 32062 ft 396 kts 255°
2026-04-28 22:07 -29.72345 -59.02026 32063 ft 396 kts 254°
2026-04-28 22:07 -29.74306 -59.07950 32064 ft 396 kts 254°
2026-04-28 22:08 -29.76265 -59.13880 32064 ft 396 kts 254°
2026-04-28 22:08 -29.78210 -59.19778 32064 ft 397 kts 254°
2026-04-28 22:09 -29.80165 -59.25717 32063 ft 397 kts 253°
2026-04-28 22:09 -29.81794 -59.30673 32063 ft 397 kts 254°
2026-04-28 22:10 -29.83744 -59.36617 32056 ft 397 kts 253°
2026-04-28 22:10 -29.85700 -59.42584 32054 ft 398 kts 253°
2026-04-28 22:11 -29.87654 -59.48561 32055 ft 398 kts 253°
2026-04-28 22:11 -29.89607 -59.54544 32054 ft 398 kts 253°
2026-04-28 22:12 -29.91555 -59.60522 32056 ft 399 kts 253°
2026-04-28 22:12 -29.93504 -59.66512 32053 ft 399 kts 253°
2026-04-28 22:13 -29.95435 -59.72460 32053 ft 399 kts 253°
2026-04-28 22:13 -29.97381 -59.78466 32053 ft 399 kts 253°
2026-04-28 22:14 -29.99324 -59.84471 32046 ft 399 kts 253°
2026-04-28 22:14 -30.01265 -59.90479 32046 ft 400 kts 253°
2026-04-28 22:15 -30.03194 -59.96465 32046 ft 400 kts 253°
2026-04-28 22:15 -30.05127 -60.02471 32046 ft 400 kts 253°
2026-04-28 22:16 -30.07062 -60.08495 32046 ft 400 kts 253°
2026-04-28 22:16 -30.08994 -60.14521 32045 ft 400 kts 253°
2026-04-28 22:17 -30.10925 -60.20554 32041 ft 401 kts 253°
2026-04-28 22:17 -30.12844 -60.26558 32037 ft 401 kts 252°
2026-04-28 22:18 -30.14774 -60.32607 32036 ft 402 kts 252°
2026-04-28 22:18 -30.16708 -60.38679 32037 ft 403 kts 252°
2026-04-28 22:19 -30.18643 -60.44770 32035 ft 404 kts 252°
2026-04-28 22:19 -30.20579 -60.50871 32032 ft 405 kts 252°
2026-04-28 22:20 -30.22521 -60.57000 32027 ft 406 kts 252°
2026-04-28 22:20 -30.24471 -60.63168 32026 ft 408 kts 252°
2026-04-28 22:21 -30.26425 -60.69356 32027 ft 410 kts 252°
2026-04-28 22:21 -30.28384 -60.75574 32027 ft 412 kts 252°
2026-04-28 22:22 -30.30331 -60.81766 32027 ft 413 kts 251°
2026-04-28 22:22 -30.32292 -60.88013 32022 ft 414 kts 251°
2026-04-28 22:23 -30.34262 -60.94303 32018 ft 416 kts 251°
2026-04-28 22:23 -30.36236 -61.00617 32018 ft 417 kts 251°
2026-04-28 22:24 -30.38210 -61.06938 32017 ft 418 kts 251°
2026-04-28 22:24 -30.40195 -61.13286 32018 ft 419 kts 251°
2026-04-28 22:25 -30.42163 -61.19594 32016 ft 419 kts 251°
2026-04-28 22:25 -30.44149 -61.25968 32018 ft 420 kts 251°
2026-04-28 22:26 -30.46130 -61.32344 32018 ft 421 kts 251°
2026-04-28 22:26 -30.48112 -61.38731 32017 ft 421 kts 251°
2026-04-28 22:27 -30.50089 -61.45117 32018 ft 421 kts 251°
2026-04-28 22:27 -30.52065 -61.51509 32017 ft 421 kts 251°
2026-04-28 22:28 -30.54023 -61.57863 32008 ft 421 kts 251°
2026-04-28 22:28 -30.55995 -61.64272 32010 ft 422 kts 251°
2026-04-28 22:29 -30.57954 -61.70694 32008 ft 422 kts 252°
2026-04-28 22:29 -30.59907 -61.77121 32009 ft 422 kts 252°
2026-04-28 22:30 -30.61860 -61.83557 32007 ft 422 kts 252°
2026-04-28 22:30 -30.63807 -61.89988 32008 ft 422 kts 252°
2026-04-28 22:31 -30.65754 -61.96433 32009 ft 423 kts 252°
2026-04-28 22:31 -30.67696 -62.02874 32005 ft 424 kts 251°
2026-04-28 22:32 -30.69653 -62.09379 32007 ft 427 kts 251°
2026-04-28 22:32 -30.71614 -62.15910 32008 ft 428 kts 251°
2026-04-28 22:32 -30.72569 -62.19096 31900 ft 419 kts 251°
2026-04-28 22:33 -30.73520 -62.22271 31659 ft 412 kts 251°
2026-04-28 22:33 -30.74457 -62.25402 31425 ft 409 kts 251°
2026-04-28 22:33 -30.75388 -62.28518 31192 ft 407 kts 251°
2026-04-28 22:33 -30.76318 -62.31631 30953 ft 406 kts 251°
2026-04-28 22:34 -30.77242 -62.34728 30718 ft 405 kts 251°
2026-04-28 22:34 -30.78168 -62.37824 30481 ft 404 kts 250°
2026-04-28 22:34 -30.79094 -62.40907 30237 ft 403 kts 250°
2026-04-28 22:34 -30.80013 -62.43971 29992 ft 400 kts 250°
2026-04-28 22:35 -30.80927 -62.47019 29383 ft 399 kts 250°
2026-04-28 22:35 -30.81846 -62.50084 28773 ft 400 kts 250°
2026-04-28 22:35 -30.82744 -62.53087 28283 ft 398 kts 250°
2026-04-28 22:35 -30.83651 -62.56119 27784 ft 395 kts 250°
2026-04-28 22:36 -30.84550 -62.59130 27294 ft 393 kts 250°
2026-04-28 22:36 -30.85446 -62.62133 26807 ft 391 kts 250°
2026-04-28 22:36 -30.86334 -62.65113 26327 ft 389 kts 250°
2026-04-28 22:36 -30.87218 -62.68081 25848 ft 387 kts 250°
2026-04-28 22:37 -30.88096 -62.71035 25379 ft 385 kts 250°
2026-04-28 22:37 -30.88969 -62.73971 24921 ft 383 kts 250°
2026-04-28 22:37 -30.89835 -62.76887 24473 ft 380 kts 250°
2026-04-28 22:37 -30.90697 -62.79792 24081 ft 377 kts 250°
2026-04-28 22:38 -30.91548 -62.82663 23678 ft 374 kts 250°
2026-04-28 22:38 -30.92392 -62.85514 23246 ft 372 kts 250°
2026-04-28 22:38 -30.93231 -62.88351 22831 ft 370 kts 250°
2026-04-28 22:38 -30.94066 -62.91177 22412 ft 367 kts 250°
2026-04-28 22:39 -30.94895 -62.93984 21997 ft 365 kts 250°
2026-04-28 22:39 -30.95718 -62.96773 21589 ft 363 kts 250°
2026-04-28 22:39 -30.96525 -62.99510 21191 ft 361 kts 250°
2026-04-28 22:39 -30.97337 -63.02265 20789 ft 358 kts 250°
2026-04-28 22:40 -30.98142 -63.05004 20391 ft 356 kts 251°
2026-04-28 22:40 -30.98943 -63.07724 19999 ft 353 kts 251°
2026-04-28 22:40 -30.99738 -63.10432 19611 ft 351 kts 251°
2026-04-28 22:40 -31.00525 -63.13113 19225 ft 348 kts 251°
2026-04-28 22:41 -31.01305 -63.15772 18846 ft 346 kts 251°
2026-04-28 22:41 -31.02142 -63.18388 18397 ft 345 kts 242°
2026-04-28 22:41 -31.03579 -63.20606 18003 ft 342 kts 227°
2026-04-28 22:41 -31.05174 -63.22645 17643 ft 338 kts 229°
2026-04-28 22:42 -31.06741 -63.24675 17270 ft 336 kts 229°
2026-04-28 22:42 -31.08307 -63.26686 16897 ft 333 kts 228°
2026-04-28 22:42 -31.09866 -63.28678 16523 ft 331 kts 228°
2026-04-28 22:42 -31.11416 -63.30655 16149 ft 329 kts 228°
2026-04-28 22:43 -31.12955 -63.32618 15780 ft 327 kts 228°
2026-04-28 22:43 -31.14466 -63.34544 15416 ft 325 kts 228°
2026-04-28 22:43 -31.15987 -63.36484 15045 ft 323 kts 228°
2026-04-28 22:43 -31.17495 -63.38409 14673 ft 321 kts 228°
2026-04-28 22:44 -31.18998 -63.40328 14307 ft 319 kts 228°
2026-04-28 22:44 -31.20488 -63.42231 13942 ft 317 kts 228°
2026-04-28 22:44 -31.21973 -63.44129 13585 ft 315 kts 228°
2026-04-28 22:44 -31.23443 -63.46009 13225 ft 313 kts 228°
2026-04-28 22:45 -31.24907 -63.47882 12856 ft 311 kts 229°
2026-04-28 22:45 -31.26361 -63.49742 12498 ft 309 kts 229°
2026-04-28 22:45 -31.27806 -63.51593 12229 ft 304 kts 229°
2026-04-28 22:45 -31.29212 -63.53394 12089 ft 295 kts 229°
2026-04-28 22:46 -31.30579 -63.55146 11944 ft 287 kts 229°
2026-04-28 22:46 -31.31901 -63.56843 11805 ft 278 kts 229°
2026-04-28 22:46 -31.33174 -63.58476 11596 ft 273 kts 229°
2026-04-28 22:46 -31.34451 -63.60114 11282 ft 272 kts 229°
2026-04-28 22:47 -31.35723 -63.61747 10969 ft 271 kts 229°
2026-04-28 22:47 -31.36989 -63.63373 10657 ft 269 kts 229°
2026-04-28 22:47 -31.38250 -63.64994 10370 ft 270 kts 230°
2026-04-28 22:47 -31.39528 -63.66637 10072 ft 275 kts 230°
2026-04-28 22:48 -31.40829 -63.68309 9759 ft 279 kts 230°
2026-04-28 22:48 -31.42139 -63.69997 9450 ft 280 kts 231°
2026-04-28 22:48 -31.43167 -63.71901 9070 ft 277 kts 255°
2026-04-28 22:48 -31.43377 -63.74109 8770 ft 270 kts 273°
2026-04-28 22:49 -31.43394 -63.76294 8500 ft 267 kts 271°
2026-04-28 22:49 -31.43424 -63.78461 8216 ft 265 kts 271°
2026-04-28 22:49 -31.43443 -63.80581 7929 ft 263 kts 271°
2026-04-28 22:49 -31.43456 -63.82707 7646 ft 260 kts 272°
2026-04-28 22:50 -31.43466 -63.84847 7356 ft 259 kts 272°
2026-04-28 22:50 -31.43472 -63.86923 7075 ft 258 kts 272°
2026-04-28 22:50 -31.43477 -63.89045 6783 ft 255 kts 272°
2026-04-28 22:50 -31.43481 -63.91118 6505 ft 254 kts 272°
2026-04-28 22:51 -31.43483 -63.93155 6235 ft 252 kts 272°
2026-04-28 22:51 -31.43486 -63.95197 5950 ft 250 kts 272°
2026-04-28 22:51 -31.43489 -63.97225 5687 ft 247 kts 272°
2026-04-28 22:51 -31.43491 -63.99206 5539 ft 239 kts 273°
2026-04-28 22:52 -31.43493 -64.01125 5413 ft 231 kts 273°
2026-04-28 22:52 -31.43494 -64.02969 5290 ft 222 kts 273°
2026-04-28 22:52 -31.43496 -64.04727 5203 ft 209 kts 273°
2026-04-28 22:52 -31.43495 -64.06377 5046 ft 197 kts 274°
2026-04-28 22:53 -31.43495 -64.07951 4927 ft 191 kts 274°
2026-04-28 22:53 -31.43495 -64.09501 4828 ft 190 kts 274°
2026-04-28 22:53 -31.43493 -64.11046 4700 ft 190 kts 274°
2026-04-28 22:53 -31.43493 -64.12591 4572 ft 186 kts 275°
2026-04-28 22:54 -31.43492 -64.14084 4325 ft 181 kts 275°
2026-04-28 22:54 -31.43402 -64.15524 4016 ft 174 kts 292°
2026-04-28 22:54 -31.42727 -64.16615 3772 ft 161 kts 324°
2026-04-28 22:54 -31.41856 -64.17348 3665 ft 151 kts 326°
2026-04-28 22:55 -31.41016 -64.18071 3563 ft 149 kts 327°
2026-04-28 22:55 -31.40160 -64.18744 3336 ft 148 kts 330°
2026-04-28 22:55 -31.39264 -64.19355 3036 ft 149 kts 334°
2026-04-28 22:55 -31.38353 -64.19902 2791 ft 149 kts 334°
2026-04-28 22:56 -31.37370 -64.20301 2609 ft 151 kts 346°
2026-04-28 22:56 -31.36299 -64.20624 2413 ft 156 kts 351°
2026-04-28 22:56 -31.35261 -64.20767 2136 ft 150 kts 358°
2026-04-28 22:56 -31.34198 -64.20790 1932 ft 150 kts
2026-04-28 22:57 -31.33144 -64.20808 1769 ft 151 kts
2026-04-28 22:57 -31.32083 -64.20817 1622 ft 147 kts 359°
2026-04-28 22:57 -31.31278 -64.20831 1619 ft 81 kts 359°
2026-04-28 22:57 -31.30907 -64.20837 1618 ft 24 kts 359°
2026-04-28 22:58 -31.30782 -64.20821 1621 ft 13 kts 18°
2026-04-28 22:58 -31.30758 -64.20832 1615 ft 2 kts 272°
2026-04-28 22:58 -31.30801 -64.20844 1620 ft 12 kts 169°
2026-04-28 22:58 -31.30863 -64.20838 1622 ft 15 kts 179°
2026-04-28 22:59 -31.30972 -64.20837 1621 ft 16 kts 179°
2026-04-28 22:59 -31.31091 -64.20834 1620 ft 18 kts 179°
2026-04-28 22:59 -31.31265 -64.20832 1620 ft 19 kts 179°
2026-04-28 22:59 -31.31397 -64.20830 1623 ft 18 kts 184°
2026-04-28 23:00 -31.31465 -64.20897 1616 ft 14 kts 269°
2026-04-28 23:00 -31.31466 -64.20980 1615 ft 1 kts 269°
2026-04-28 23:01 -31.31468 -64.21009 1620 ft 9 kts 258°
2026-04-28 23:01 -31.31522 -64.21079 1621 ft 13 kts 214°
2026-04-28 23:01 -31.31549 -64.21156 1615 ft 7 kts 258°
2026-04-28 23:01 -31.31550 -64.21163 1615 ft 2 kts 258°
2026-04-28 23:02 -31.31551 -64.21166 1615 ft 0 kts 258°
2026-04-28 23:44 -31.31551 -64.21165 1615 ft 0 kts 258°